Starlink 5185

operational
NORAD ID: 54100 Int'l Des: 2022-136 Owner: SPXS Country: US Constellation: starlink
LEOCIRCULAR

Starlink 5185について

説明を読み込み中...

リアルタイム位置

3D地球を読み込み中...

次回通過

高度履歴

Altitude vs Time

uPlot chart will show altitude changes over time

軌道要素

1 54100U 22136BB 25259.64722598 -.00014273 00000-0 -87874-3 0 9996
2 54100 53.2189 35.1395 0000928 92.5007 267.6092 15.08910745160715
Epoch: Sep 16, 2025 • Age: 33 hours

現在のステータス

高度 542.2 km
速度 7.59 km/s
衛星直下点 -8.88°S, 144.03°W
打ち上げ日 Oct 20, 2022
運用期間 2.9 years
タイプ internet

技術仕様

分類 Payload
質量 305.00 kg
乾燥質量 290.00 kg
総質量 305.00 kg
長さ 0.20 m
直径 2.80 m
スパン 9.00 m
形状 Box + pan
製造者 SPXS
バスタイプ Starlink
フェーズステータス In Orbit
所有者/国 SPXS/US

大規模コンステレーション

Loading constellations...